Total_Precipitation_Accumulation
0.46 0.64 0.66 0.71 0.48 0.45 0.40 0.36 0.31 0.31 0.26 0.21 0.20 0.20 0.23 0.26 0.30 0.32 0.31 0.29 0.31 0.45 0.64 0.69 0.63 0.58 0.56 0.53 0.50 0.47 0.43 0.41 0.39 0.35 0.30 0.24 0.21 0.21 0.21 0.22 0.22 0.21 0.20
0.64 0.86 0.90 0.89 0.69 0.66 0.69 0.69 0.64 0.50 0.41 0.40 0.35 0.32 0.34 0.40 0.45 0.43 0.44 0.41 0.38 0.45 0.63 0.73 0.78 0.80 0.76 0.73 0.66 0.61 0.58 0.55 0.53 0.48 0.42 0.37 0.34 0.33 0.31 0.29 0.28 0.26 0.22
0.92 0.92 1.11 1.08 0.91 0.86 0.84 0.76 0.79 0.77 0.66 0.59 0.53 0.48 0.52 0.56 0.57 0.60 0.63 0.65 0.57 0.56 0.62 0.71 0.76 0.80 0.83 0.84 0.80 0.75 0.73 0.68 0.62 0.55 0.51 0.49 0.48 0.48 0.46 0.42 0.39 0.37 0.32
1.24 1.20 1.18 1.19 1.10 1.09 1.22 1.20 1.05 1.00 0.96 0.84 0.78 0.72 0.67 0.70 0.66 0.69 0.65 0.69 0.76 0.66 0.58 0.61 0.64 0.69 0.77 0.85 0.92 0.95 0.93 0.86 0.79 0.70 0.64 0.60 0.58 0.54 0.51 0.48 0.47 0.46 0.43
1.61 1.64 1.63 1.64 1.52 1.54 1.46 1.32 1.30 1.18 1.18 1.06 0.84 0.76 0.71 0.76 0.69 0.60 0.57 0.61 0.68 0.64 0.58 0.53 0.56 0.61 0.69 0.79 0.86 0.90 0.92 0.88 0.84 0.81 0.77 0.73 0.67 0.62 0.56 0.52 0.53 0.55 0.56
2.27 2.27 2.17 2.08 1.98 1.84 1.69 1.56 1.47 1.28 1.15 1.02 0.77 0.66 0.61 0.57 0.55 0.57 0.53 0.53 0.54 0.50 0.51 0.51 0.48 0.47 0.52 0.58 0.65 0.74 0.79 0.82 0.83 0.83 0.76 0.73 0.71 0.66 0.61 0.57 0.58 0.61 0.61
2.74 2.57 2.43 2.33 2.14 1.95 1.77 1.61 1.41 1.25 1.07 0.93 0.90 0.78 0.59 0.47 0.46 0.44 0.42 0.42 0.41 0.42 0.47 0.48 0.44 0.41 0.39 0.43 0.44 0.50 0.58 0.63 0.69 0.73 0.74 0.78 0.75 0.69 0.67 0.65 0.65 0.67 0.68
3.17 2.93 2.82 2.62 2.31 2.09 1.85 1.61 1.40 1.28 1.11 0.96 0.99 0.98 0.81 0.60 0.45 0.35 0.32 0.30 0.28 0.27 0.28 0.29 0.29 0.30 0.30 0.32 0.36 0.41 0.44 0.53 0.61 0.70 0.75 0.76 0.76 0.73 0.71 0.71 0.71 0.72 0.74
3.65 3.36 3.19 2.90 2.57 2.22 1.91 1.63 1.39 1.27 1.18 1.05 0.94 0.98 0.94 0.78 0.52 0.36 0.27 0.21 0.18 0.19 0.19 0.20 0.22 0.23 0.24 0.25 0.28 0.35 0.39 0.44 0.52 0.58 0.63 0.70 0.74 0.76 0.76 0.77 0.80 0.83 0.88
3.23 3.03 2.81 2.53 2.23 1.93 1.69 1.45 1.20 1.07 1.08 0.99 0.85 0.74 0.69 0.63 0.54 0.40 0.25 0.19 0.16 0.15 0.14 0.14 0.16 0.19 0.22 0.24 0.29 0.33 0.35 0.36 0.41 0.43 0.46 0.49 0.54 0.57 0.59 0.61 0.66 0.74 0.82
2.74 2.48 2.23 1.95 1.69 1.48 1.30 1.16 1.02 0.90 0.84 0.77 0.67 0.59 0.55 0.49 0.41 0.38 0.31 0.21 0.18 0.16 0.14 0.13 0.14 0.16 0.18 0.22 0.26 0.32 0.35 0.33 0.35 0.35 0.35 0.34 0.36 0.41 0.46 0.49 0.53 0.60 0.68
2.15 1.77 1.54 1.32 1.13 0.98 0.88 0.80 0.73 0.65 0.59 0.52 0.46 0.40 0.36 0.36 0.34 0.33 0.29 0.21 0.16 0.14 0.13 0.13 0.14 0.15 0.15 0.18 0.22 0.30 0.24 0.24 0.26 0.26 0.25 0.25 0.25 0.27 0.32 0.39 0.46 0.53 0.60
1.69 1.36 1.12 0.97 0.84 0.74 0.64 0.56 0.49 0.43 0.37 0.32 0.29 0.26 0.22 0.19 0.17 0.17 0.16 0.16 0.13 0.11 0.10 0.10 0.09 0.10 0.11 0.12 0.17 0.24 0.19 0.20 0.19 0.18 0.17 0.18 0.18 0.19 0.20 0.23 0.29 0.36 0.44
1.28 1.08 0.92 0.78 0.62 0.47 0.40 0.35 0.31 0.26 0.22 0.18 0.16 0.15 0.14 0.12 0.12 0.11 0.12 0.14 0.15 0.13 0.11 0.10 0.09 0.09 0.09 0.10 0.14 0.18 0.15 0.17 0.15 0.16 0.16 0.16 0.15 0.15 0.16 0.18 0.20 0.23 0.27
0.84 0.70 0.60 0.51 0.41 0.33 0.28 0.24 0.21 0.18 0.15 0.13 0.12 0.10 0.10 0.09 0.09 0.09 0.10 0.12 0.16 0.16 0.13 0.10 0.09 0.08 0.08 0.08 0.11 0.10 0.11 0.15 0.13 0.12 0.12 0.11 0.10 0.10 0.11 0.12 0.13 0.14 0.15
0.60 0.50 0.41 0.34 0.31 0.26 0.23 0.18 0.14 0.12 0.10 0.10 0.09 0.09 0.09 0.08 0.09 0.10 0.11 0.11 0.13 0.16 0.16 0.10 0.09 0.08 0.08 0.06 0.06 0.07 0.10 0.10 0.09 0.07 0.07 0.08 0.08 0.08 0.09 0.10 0.12 0.13 0.15
0.54 0.46 0.41 0.36 0.31 0.26 0.21 0.17 0.15 0.13 0.12 0.11 0.10 0.09 0.10 0.11 0.12 0.11 0.11 0.10 0.10 0.13 0.16 0.09 0.06 0.06 0.09 0.11 0.12 0.14 0.14 0.15 0.13 0.09 0.09 0.10 0.10 0.10 0.10 0.12 0.14 0.15 0.16
0.39 0.33 0.28 0.26 0.25 0.22 0.18 0.15 0.14 0.12 0.10 0.09 0.08 0.08 0.08 0.08 0.10 0.09 0.08 0.07 0.08 0.12 0.15 0.14 0.10 0.09 0.12 0.15 0.17 0.17 0.09 0.08 0.12 0.09 0.09 0.10 0.12 0.13 0.14 0.15 0.15 0.14 0.12
0.31 0.26 0.21 0.19 0.17 0.14 0.12 0.09 0.08 0.06 0.05 0.04 0.04 0.05 0.06 0.07 0.07 0.07 0.08 0.07 0.09 0.10 0.16 0.20 0.16 0.15 0.13 0.13 0.16 0.14 0.14 0.20 0.12 0.09 0.08 0.09 0.10 0.11 0.10 0.08 0.08 0.08 0.06
0.23 0.20 0.17 0.13 0.10 0.08 0.06 0.05 0.04 0.03 0.03 0.03 0.04 0.04 0.04 0.05 0.06 0.07 0.07 0.09 0.13 0.17 0.20 0.23 0.19 0.15 0.13 0.12 0.20 0.20 0.18 0.19 0.17 0.11 0.11 0.09 0.09 0.06 0.05 0.04 0.04 0.05 0.05
0.16 0.13 0.10 0.08 0.07 0.05 0.04 0.03 0.02 0.01 0.02 0.02 0.03 0.03 0.03 0.04 0.06 0.06 0.07 0.11 0.18 0.23 0.24 0.24 0.21 0.17 0.15 0.19 0.23 0.24 0.23 0.18 0.15 0.12 0.14 0.13 0.14 0.16 0.16 0.12 0.08 0.06 0.04
0.10 0.08 0.06 0.05 0.03 0.02 0.01 0.01 0.01 0.01 0.02 0.03 0.04 0.04 0.04 0.03 0.03 0.04 0.06 0.11 0.18 0.22 0.23 0.25 0.24 0.25 0.23 0.27 0.32 0.32 0.32 0.33 0.27 0.19 0.22 0.17 0.15 0.21 0.22 0.20 0.13 0.08 0.06
0.08 0.06 0.04 0.03 0.03 0.02 0.01 0.00 0.00 0.01 0.04 0.06 0.08 0.08 0.05 0.03 0.05 0.09 0.08 0.08 0.10 0.12 0.18 0.26 0.30 0.30 0.31 0.34 0.43 0.42 0.43 0.43 0.38 0.30 0.35 0.30 0.24 0.26 0.19 0.14 0.13 0.11 0.08
0.08 0.06 0.04 0.04 0.05 0.03 0.00 0.00 0.00 0.03 0.06 0.07 0.08 0.09 0.10 0.09 0.08 0.07 0.06 0.07 0.12 0.15 0.16 0.20 0.30 0.30 0.27 0.30 0.40 0.44 0.44 0.43 0.42 0.41 0.45 0.46 0.33 0.28 0.19 0.27 0.24 0.17 0.12
0.08 0.06 0.05 0.05 0.07 0.07 0.01 0.00 0.00 0.03 0.06 0.05 0.05 0.06 0.07 0.10 0.08 0.08 0.08 0.12 0.16 0.19 0.14 0.18 0.24 0.29 0.34 0.39 0.43 0.45 0.52 0.58 0.54 0.48 0.52 0.53 0.44 0.36 0.29 0.34 0.33 0.23 0.21
0.09 0.06 0.06 0.07 0.08 0.09 0.03 0.01 0.01 0.03 0.06 0.06 0.08 0.09 0.09 0.08 0.07 0.07 0.07 0.15 0.22 0.20 0.22 0.28 0.44 0.61 0.67 0.65 0.55 0.52 0.60 0.65 0.64 0.67 0.61 0.60 0.56 0.46 0.41 0.35 0.37 0.39 0.43